Location: Friedrichshafen
(47.6598°N, 9.4819°E)
Time: 12:20:03
(UTC+02:00)

ISS - Visible Passes

Search period start: 13 May 2021 00:00
Search period end: 23 May 2021 00:00
Orbit: 417 x 422 km, 51.6° (Epoch: 13 May)

Date Brightness Start Highest point End Pass type
(mag) Time Alt. Az. Time Alt. Az. Time Alt. Az.
13 May -2.5 02:05:02 36° NW 02:05:42 41° N 02:08:56 10° ENE visible
13 May -3.1 03:39:32 10° WNW 03:42:52 57° NNE 03:46:13 10° E visible
14 May -2.5 01:18:38 41° NNE 01:18:38 41° NNE 01:21:26 10° ENE visible
14 May -2.7 02:52:05 10° WNW 02:55:22 47° NNE 02:58:40 10° E visible
14 May -3.7 04:28:56 10° WNW 04:32:15 56° SSW 04:35:35 10° SE visible
14 May -3.5 22:50:36 10° SW 22:53:50 44° SSE 22:55:35 23° E visible
15 May -3.0 00:27:20 10° W 00:30:38 52° NNW 00:33:57 10° ENE visible
15 May -2.5 02:04:35 10° WNW 02:07:50 42° N 02:11:05 10° E visible
15 May -3.9 03:41:28 10° WNW 03:44:52 82° SSW 03:48:14 10° ESE visible
15 May -2.9 22:03:32 10° SSW 22:06:30 29° SE 22:09:29 10° E visible
15 May -3.4 23:39:47 10° WSW 23:43:09 65° NNW 23:46:31 10° ENE visible
16 May -2.4 01:17:05 10° WNW 01:20:18 40° N 01:23:31 10° ENE visible
16 May -3.6 02:54:01 10° WNW 02:57:24 74° NNE 03:00:47 10° ESE visible
16 May -2.7 04:31:10 10° W 04:33:59 24° SW 04:36:47 10° SSE visible
16 May -3.8 22:52:18 10° WSW 22:55:41 86° NNW 22:59:04 10° ENE visible
17 May -2.4 00:29:32 10° WNW 00:32:44 40° N 00:35:58 10° ENE visible
17 May -3.2 02:06:35 10° WNW 02:09:55 57° NNE 02:13:16 10° E visible
17 May -3.3 03:43:31 10° WNW 03:46:40 37° SW 03:49:48 10° SSE visible
17 May -3.8 22:04:55 10° SW 22:08:15 67° SSE 22:11:37 10° ENE visible
17 May -2.6 23:41:57 10° W 23:45:12 44° N 23:48:28 10° ENE visible
18 May -2.8 01:19:07 10° WNW 01:22:25 47° NNE 01:22:56 42° NE visible
18 May -2.9 22:54:22 10° W 22:57:40 51° NNW 23:00:59 10° ENE visible
19 May -2.5 00:31:38 10° WNW 00:34:52 42° N 00:36:31 23° ENE visible
19 May -1.5 02:08:30 10° WNW 02:09:26 17° WNW 02:09:26 17° WNW visible
19 May -3.3 22:06:50 10° WSW 22:10:10 65° NNW 22:13:32 10° ENE visible
19 May -2.4 23:44:06 10° WNW 23:47:19 40° N 23:50:21 11° ENE visible
20 May -2.6 01:21:02 10° WNW 01:23:17 38° NW 01:23:17 38° NW visible
20 May -2.4 22:56:33 10° WNW 22:59:45 40° N 23:02:59 10° ENE visible
21 May -3.2 00:33:36 10° WNW 00:36:56 57° NNE 00:37:12 55° NE visible
21 May -2.5 22:08:58 10° W 22:12:13 44° N 22:15:28 10° ENE visible
21 May -2.8 23:46:07 10° WNW 23:49:25 47° NNE 23:51:10 23° ENE visible
22 May -1.6 01:22:59 10° WNW 01:24:06 19° WNW 01:24:06 19° WNW visible
22 May -2.5 22:58:38 10° WNW 23:01:52 42° N 23:05:06 10° E visible
